Location: Unspecified
(0.0000°N, 0.0000°E)
Time: 08:07:42
(UTC+00:00)

Kosmos-648 - Pass Details

Date: 03 July 2022
Orbit: 1437 x 1489 km, 74.0° (Epoch: 16 August)

Event Time Altitude Azimuth Distance (km) Brightness Sun altitude
Rises 22:07:38 0° 314° (NW) 4,604 ? -53.5°
Reaches altitude 10° 22:11:47 10° 297° (WNW) 3,626 ? -54.3°
Enters shadow 22:15:12 17° 274° (W) 3,133 ? -54.9°
